Weather Roundup
Issued by NWS Chicago, IL

Home | Current Version | Previous Version | Text Only | Print | Product List | Glossary Off
Versions: 1 2 3 4 5 6 7 8 9 10 11 12 13 14 15 16 17 18 19 20 21 22 23 24 25 26 27 28 29 30 31 32 33 34 35 36 37 38 39 40 41 42 43 44 45 46 47 48 49 50

000
NZUS59 KLOT 252003
HRRLOT

CHICAGO AREA WEATHER ROUNDUP
NATIONAL WEATHER SERVICE CHICAGO/ROMEOVILLE IL
300 PM CDT SAT MAR 25 2017

NOTE: "FAIR" INDICATES FEW OR NO CLOUDS BELOW 12,000 FEET WITH NO
SIGNIFICANT WEATHER AND/OR OBSTRUCTIONS TO VISIBILITY.

* THESE STATIONS ARE NOT UNDER NWS QUALITY CONTROL. THEY ALSO MAY NOT
  REPORT WEATHER SUCH AS PRECIPITATION OR FOG.

ILZ005-006-012>014-019>023-252100-
NORTHEAST ILLINOIS

CITY           SKY/WX    TMP DP  RH WIND       PRES   REMARKS
OHARE          CLOUDY    44  41  89 NE13      30.00F FOG
MIDWAY         CLOUDY    48  46  93 NE10G17   29.99F FOG
AURORA         FOG       45  43  93 NE17      29.98S VSB 1
LANSING*       CLOUDY    48  47  97 N7        29.97F FOG
JOLIET*        CLOUDY    50  49  95 NE8       29.97F FOG
WAUKEGAN       CLOUDY    39  39 100 NE12      30.04F FOG
DUPAGE AIRPORT FOG       43  43 100 NE13      29.99F VSB 3/4
WHEELING       CLOUDY    41  41 100 NE10      30.02F
MORRIS*        DRIZZLE   51  49  92 NE5       29.96S
NORTHERLY ISL    N/A     44  42  93 MISG        N/A
$$

WIZ051-052-058>065-066-070>072-252100-
SOUTHEAST WISCONSIN

CITY           SKY/WX    TMP DP  RH WIND       PRES   REMARKS
MILWAUKEE      LGT RAIN  39  36  89 NE13      30.08F FOG
KENOSHA*       CLOUDY    39  37  92 NE16      30.05F
RACINE*        CLOUDY    38  36  92 NE15      30.08F
WAUKESHA       LGT RAIN  36  36 100 NE17G25   30.07F
WEST BEND      DRIZZLE   37  37 100 NE15G23   30.09F
$$

INZ001>003-010>013-019-020-252100-
NORTHWEST INDIANA

CITY           SKY/WX    TMP DP  RH WIND       PRES   REMARKS
GARY*          CLOUDY    48  48 100 CALM      29.98F FOG
MICHIGAN CITY* NOT AVBL
RENSSELAER*    NOT AVBL
VALPARAISO     CLOUDY    66  58  75 E15       29.97F
$$

LMZ740>746-252100-
SOUTHERN LAKE MICHIGAN

STATION/POSITION TIME  SKY/WX   TEMP WIND        PRES    VSBY
                                AIR  DIR/SP/G
                 (UTC)          (F)  (DEG/KT/KT) (MB)    (MI)
HARRISON CRIB    1940                 10/  6/  8   N/A
BURNHAM HARBOR   2000                350/  5/ 11   N/A
CALUMET HARBOR   1930            44  330/  6/  7 1014.9F
BURNS HARBOR     1940            47   30/  3/  5 1015.6F
MICHIGAN CITY    1940            61   80/ 12/ 15   N/A
$$

ABBREVIATIONS USED IN REMARKS
   TC - TEMPERATURE IN CELSIUS
  WCI - WIND CHILL INDEX
   HX - HEAT INDEX
  VSB - VISIBILITY
$$




USA.gov is the U.S. government's official web portal to all federal, state and local government web resources and services.